Vertical_Velocity
-3 -3 -1 -0 -2 -3 -1 4 1 -3 -3 -1 -1 -2 -1 -1 -1 -1 -2 -3 -4 -4 -5 -5 -5 -5 -5 -3 -2 -2 -2 -2 -2 -2 -2 -2 -2 -2 -1 -1 -1 -1 -1 -1 -1 -1 -1 -1 -1 -1 -1 -1 -1 -1 -1 -0 -0 0 0 -0 -0 -0 -0 -1 -1 -1 -1 -1 -1 -1 -1 -0 -1 -1 -1 -1 -0 1 0 -1 -1 -2 -2 -1 0 1
-2 -2 -2 -1 -2 -3 -3 3 2 -2 -6 -3 -1 -1 -2 -1 0 1 -1 -2 -2 -4 -6 -6 -5 -5 -5 -3 -2 -1 -1 -1 -2 -3 -2 -2 -1 -1 -1 -1 -1 -0 -0 -0 -1 -1 -1 -1 -1 -1 -0 -0 -1 -1 -1 -1 -1 -0 -0 -0 -0 -0 -1 -1 -1 -1 -1 -1 -1 -0 -0 -0 -1 -1 -1 -1 -0 0 0 0 0 -0 -2 -1 -0 1
-2 -4 -3 -1 -1 -2 -3 1 2 0 -4 -4 -2 -0 -1 -2 -1 1 0 -1 -1 -2 -4 -6 -6 -5 -3 -2 -1 -1 0 -1 -2 -3 -2 -2 -1 -1 -1 -1 -0 -0 -0 -0 -0 -0 -1 -1 -1 -0 -0 -0 -0 -0 -1 -1 -1 -1 -1 -1 -1 -1 -1 -1 -1 -1 -1 -1 -1 -1 -0 -0 -1 -1 -1 -0 -0 -1 -1 1 2 3 1 0 1 2
-2 -4 -3 -2 -1 -1 -1 -1 -1 -0 -0 -2 -2 -0 0 -1 -1 -1 0 -1 -1 -1 -1 -3 -5 -5 -3 -1 -1 -0 0 -1 -1 -2 -2 -1 -1 -1 -1 -0 -0 -0 -0 -0 -0 -0 -0 -0 -0 -0 -0 -0 -0 -0 -1 -1 -1 -1 -1 -1 -1 -1 -1 -1 -1 -1 -1 -1 -1 -1 -1 -1 -1 -1 -1 -1 -1 -1 -1 1 2 4 3 2 2 1
-0 -2 -2 -2 -3 -3 0 0 -0 -1 -1 -1 -1 -0 0 0 -0 -1 -1 -1 -1 -1 0 -1 -2 -3 -2 -1 -1 -1 -0 -0 -1 -1 -1 -0 -0 -0 -0 -0 -0 -0 -0 -1 -1 -1 -1 -1 -1 -1 -1 -1 -1 -1 -1 -1 -1 -1 -1 -1 -1 -1 -1 -1 -1 -1 -1 -1 -1 -1 -1 -1 -1 -1 -1 -1 -1 -1 -1 -0 1 2 1 1 1 1
0 0 -1 -2 -3 -4 -4 -1 0 -0 -3 -2 -1 1 0 1 0 -1 -1 -0 -0 -1 0 1 1 -0 -1 -1 -1 -1 -1 0 0 0 0 0 0 1 0 0 0 0 -0 -0 -0 -1 -1 -1 -2 -2 -2 -2 -2 -2 -2 -1 -1 -1 -1 -1 -1 -1 -1 -1 -1 -1 -1 -1 -1 -1 -1 -1 -1 -1 -1 -1 -1 -1 -1 -1 -1 -1 -0 -0 0 0
-1 2 1 -2 -3 -2 -3 -3 -1 -0 -2 -4 -3 -2 0 1 1 -0 -0 1 1 1 1 2 3 2 1 0 -0 -1 -1 0 1 1 1 1 2 2 1 1 1 1 1 1 0 -0 -1 -2 -2 -2 -3 -3 -3 -3 -2 -2 -1 -1 -1 -1 -1 -1 -1 -0 -1 -1 -1 -1 -1 -1 -1 -1 -1 -1 -1 -1 -1 -1 -1 -1 -2 -2 -2 -2 -2 -2
-4 0 4 -2 -5 -5 -2 -1 -1 -1 -2 -3 -5 -5 -4 0 2 2 -0 1 2 2 0 2 4 4 3 1 0 -0 -0 -0 1 1 2 2 2 2 2 2 2 2 3 2 1 0 -1 -2 -2 -2 -3 -3 -3 -3 -2 -2 -1 -1 -1 -1 -1 -1 -0 -1 -1 -1 -1 -1 -1 -1 -1 -1 -1 -1 -1 -1 -1 -1 -1 -1 -1 -2 -1 -2 -2 -2
-6 -4 1 2 -2 -8 -9 -1 4 4 -1 -3 -4 -6 -8 -3 1 3 1 2 3 3 1 1 3 4 5 3 1 1 1 0 0 1 1 2 2 2 2 3 3 3 4 3 2 1 -0 -1 -1 -2 -2 -2 -2 -2 -1 -1 -1 -1 -1 -1 -1 -1 -1 -1 -1 -1 -2 -2 -2 -2 -1 -1 -1 -1 -1 -1 -1 -1 -1 -1 -1 -1 -1 -2 -1 -1
-2 -3 -3 1 1 -2 -10 -6 2 8 5 -0 -2 -4 -6 -5 -3 0 1 2 4 4 3 1 0 1 4 4 3 2 2 2 2 2 1 2 2 2 2 3 3 4 4 3 2 1 1 0 -0 -1 -1 -1 -2 -2 -2 -2 -2 -3 -3 -3 -3 -3 -3 -3 -3 -3 -2 -2 -2 -2 -2 -2 -1 -1 -1 -1 -1 -1 -1 -1 -1 -1 -2 -2 -2 -1
-1 0 -2 -2 -1 0 -2 -4 -1 3 6 2 -0 -1 -1 -3 -4 -3 -1 1 3 4 4 2 0 -0 1 3 4 3 2 3 3 4 4 4 3 2 2 2 3 3 3 2 2 2 2 1 1 -0 -1 -1 -2 -3 -3 -3 -4 -4 -4 -5 -5 -5 -4 -4 -4 -3 -3 -2 -2 -2 -2 -2 -1 -1 -1 -1 -1 -1 -1 -1 -1 -1 -2 -2 -2 -2
-2 -2 -2 -3 -3 -2 -2 -2 -1 1 1 -1 -1 -1 2 2 -0 -3 -3 -2 -0 1 2 2 2 2 2 2 3 3 3 3 3 4 5 6 5 4 3 2 2 1 0 -1 -1 0 1 1 -0 -1 -1 -2 -2 -3 -3 -3 -4 -4 -4 -4 -3 -3 -3 -3 -3 -2 -2 -2 -2 -2 -2 -1 -1 -1 -1 -0 -0 -0 -1 -1 -1 -1 -1 -1 -1 -1
-3 -3 -4 -5 -5 -4 -3 -3 -2 -2 -1 -2 -2 -2 1 3 2 0 -2 -2 -1 -1 -1 -2 -1 2 5 5 4 3 2 2 2 4 5 6 6 5 3 2 1 -0 -2 -3 -2 -1 0 -1 -1 -1 -1 -1 -1 -1 -2 -2 -2 -2 -2 -2 -2 -1 -1 -1 -1 -1 -1 -2 -2 -1 -1 -1 -1 -0 0 1 1 0 0 -1 -1 -1 -1 -1 -1 -1
-6 -5 -5 -6 -7 -6 -4 -3 -4 -4 -4 -3 -2 -1 0 1 2 1 -1 -2 -1 -0 -1 -3 -4 -2 3 5 5 4 2 1 1 2 4 5 6 6 4 2 1 0 -0 -1 -1 0 1 0 0 0 1 0 0 -0 -0 -1 -1 -2 -2 -2 -2 -2 -2 -1 -1 -1 -2 -2 -2 -1 -1 -1 -0 0 1 1 1 1 1 0 -0 -1 -1 -1 -1 -1
-5 -5 -6 -6 -6 -5 -3 -3 -4 -6 -7 -5 -3 -1 0 0 1 -0 -2 -4 -3 -2 -2 -5 -7 -6 -2 3 4 3 1 -0 -1 -1 0 3 6 7 5 3 2 2 3 2 2 2 4 3 3 3 3 3 2 1 -0 -1 -2 -2 -2 -2 -3 -3 -4 -3 -3 -3 -2 -2 -2 -2 -1 -1 -0 0 1 1 1 2 1 1 1 0 -1 -1 -1 -2
-2 -2 -3 -4 -3 -2 -1 -1 -3 -6 -7 -6 -3 -1 -1 -1 -1 -1 -2 -4 -5 -5 -5 -8 -12 -13 -9 1 4 4 1 -2 -3 -3 -3 -0 4 8 7 3 2 3 5 5 5 5 7 6 5 4 4 4 4 3 1 0 -0 -1 -1 -2 -2 -3 -4 -5 -5 -4 -3 -3 -2 -2 -1 -1 -0 -0 0 0 1 1 1 1 0 0 -0 -1 -1 -2
1 0 -1 -1 -2 -2 -1 -1 -2 -3 -5 -4 -2 0 0 -1 -2 -2 -3 -3 -4 -5 -5 -7 -12 -17 -20 -7 4 9 5 -1 -5 -6 -5 -3 3 8 8 4 0 -0 3 4 6 7 8 7 6 5 4 4 4 4 4 3 2 1 0 -1 -2 -3 -4 -5 -5 -4 -4 -3 -2 -1 -0 -0 -0 -0 -1 -1 -1 -0 -0 -0 -0 -0 -0 -1 -1 -2
2 2 0 -1 -3 -4 -3 -1 -1 -3 -4 -2 -1 -0 0 -1 -1 -2 -3 -3 -2 -1 -2 -4 -7 -12 -18 -15 -3 9 10 2 -4 -9 -8 -6 0 7 10 4 -1 -3 -2 2 6 7 7 6 5 4 4 4 4 4 4 3 3 2 1 0 -1 -2 -3 -4 -4 -4 -3 -2 -1 -1 -0 -1 -1 -1 -1 -2 -2 -2 -1 -1 -1 -1 -1 -1 -2 -2
-1 -1 -2 -4 -5 -4 -3 -2 -2 -2 -1 -2 -1 -1 -2 -2 -2 -2 -3 -1 1 3 1 -2 -6 -9 -12 -13 -6 4 11 6 -1 -8 -11 -10 -4 3 10 5 -1 -5 -4 1 5 7 6 4 4 3 3 3 3 3 2 2 1 0 -0 -1 -1 -2 -3 -3 -3 -3 -2 -1 -1 -1 -1 -1 -2 -2 -2 -2 -2 -2 -2 -1 -1 -1 -1 -1 -1 -1
-6 -4 -3 -3 -2 -2 -4 -3 -1 0 -1 -1 -1 -2 -5 -5 -5 -5 -6 -2 1 2 2 -0 -3 -6 -10 -12 -8 0 9 6 1 -5 -10 -12 -9 -3 7 5 -1 -6 -6 -1 5 8 6 3 2 2 2 2 1 1 0 -1 -1 -2 -2 -2 -2 -2 -3 -3 -2 -2 -1 -1 -1 -1 -1 -1 -1 -1 -1 -1 -1 -1 -1 -1 -1 -1 -1 -1 -1 -1
-5 -3 1 4 3 0 -5 -5 -2 0 1 1 -1 -3 -6 -6 -6 -6 -5 -1 1 2 3 3 2 -2 -8 -13 -11 -5 5 5 2 -3 -8 -12 -12 -7 3 3 -2 -7 -8 -2 4 8 6 2 1 1 1 1 1 0 -0 -1 -2 -2 -2 -2 -2 -2 -2 -2 -2 -1 -1 -1 -1 -1 -1 -1 -0 -0 -0 -1 -1 -1 -1 -1 -1 -1 -1 -1 -1 -1
-4 -2 1 3 2 -0 -4 -4 -3 -2 0 1 -0 -3 -5 -5 -6 -6 -5 -1 2 5 9 10 7 0 -7 -11 -11 -6 2 4 2 -1 -6 -13 -15 -10 4 2 -3 -9 -10 -4 3 7 5 2 0 0 2 2 1 -0 -1 -1 -2 -2 -2 -2 -2 -2 -2 -1 -1 -1 -1 -1 -1 -1 -0 -0 0 0 -0 -0 -1 -1 -1 -1 -1 -1 -1 -1 -1 -1
-3 -2 -1 1 1 -1 -2 -3 -3 -2 -1 0 -0 -2 -3 -2 -4 -5 -2 6 12 16 16 10 4 -1 -4 -6 -7 -5 -0 4 3 0 -4 -12 -16 -12 3 2 -4 -10 -12 -4 1 4 2 0 0 1 3 2 1 -0 -1 -2 -2 -2 -1 -1 -1 -1 -1 -1 -1 -1 -1 -1 -1 -0 0 0 0 0 0 0 0 -0 -0 -1 -1 -1 -1 -1 -1 -1
-0 -0 1 2 2 1 -0 -2 -3 -2 -1 -1 -1 -1 -1 1 3 7 14 22 21 15 6 1 -1 -3 -5 -4 -5 -5 -2 3 3 -0 -5 -11 -13 -11 -1 1 -3 -9 -11 -3 1 1 -2 -3 -0 2 4 3 2 0 -1 -2 -2 -1 -1 -1 -1 -1 -1 -1 -1 -1 -1 -1 -1 -0 -0 -0 -0 -0 -0 -0 -0 -1 -1 -1 -1 -1 -1 -2 -2 -2
-0 -0 -1 0 1 1 0 -1 -2 -2 -2 -2 -1 2 4 10 17 25 32 27 18 9 3 1 -2 -4 -7 -4 -4 -4 -1 5 5 2 -3 -10 -13 -12 -4 2 -0 -6 -11 -3 1 1 -3 -3 -0 3 5 3 2 0 -1 -1 -1 -1 -0 -0 -0 -1 -1 -1 -1 -1 -1 -0 -0 -0 -0 -0 -0 -1 -1 -1 -1 -1 -1 -1 -1 -1 -1 -1 -1 -1
-2 -2 -2 -1 -1 -0 0 1 1 -0 -2 0 4 8 10 16 22 25 23 16 10 5 2 -1 -4 -6 -6 -4 -4 -4 -2 2 3 3 1 -7 -14 -16 -8 2 1 -4 -10 -4 0 1 -2 -2 1 5 6 4 2 1 -0 -1 -0 0 0 0 -0 -1 -1 -1 -1 -1 -1 -1 -0 -0 0 0 -0 -1 -1 -1 -1 -1 -1 -0 -0 -0 -1 -1 -2 -2
-1 -1 -0 0 0 0 0 -1 -1 -2 -3 -1 2 5 7 10 14 15 14 10 7 4 -0 -4 -7 -8 -7 -4 -4 -4 -2 -1 -1 0 2 -4 -12 -17 -10 1 1 -4 -9 -6 -2 1 -0 -1 2 4 6 4 3 2 1 1 1 1 0 -0 -1 -1 -2 -2 -2 -2 -2 -1 -1 -0 0 0 0 -0 -0 -0 -0 0 0 0 0 -0 -1 -2 -2 -1
2 2 2 2 2 2 1 -0 -1 -3 -4 -4 -2 1 5 8 11 11 8 6 5 2 -2 -4 -6 -8 -8 -6 -5 -4 -1 -0 1 3 4 -2 -10 -13 -5 2 1 -4 -7 -6 -3 0 2 1 2 4 4 4 4 3 2 2 1 1 0 -1 -1 -2 -2 -3 -3 -3 -2 -2 -1 -0 0 1 1 1 1 1 1 1 1 0 -0 -1 -2 -2 -2 -1
12 10 5 3 2 2 1 -0 -2 -2 -3 -4 -3 -0 4 9 11 8 3 2 2 0 -4 -5 -5 -6 -7 -7 -6 -5 -2 2 5 7 5 -1 -8 -9 1 4 1 -2 -3 -6 -5 -2 2 3 4 4 4 5 5 4 4 3 2 1 0 -1 -1 -2 -3 -3 -4 -4 -3 -2 -1 -0 0 1 1 1 1 1 1 1 1 0 -0 -1 -2 -2 -1 -1
16 16 8 4 3 3 2 2 3 5 5 4 2 2 2 4 4 2 -1 0 0 -2 -6 -6 -6 -5 -5 -6 -8 -9 -7 -0 5 7 4 -2 -7 -8 0 1 0 -1 -0 -4 -7 -6 -2 3 5 5 4 5 5 5 5 3 2 1 0 -1 -1 -2 -3 -4 -4 -4 -3 -2 -2 -1 -0 -0 0 0 0 1 1 1 1 1 -0 -1 -2 -2 -1 -1
7 7 3 1 1 0 -0 5 11 16 17 14 8 2 -1 -1 -0 0 0 1 -0 -3 -6 -7 -6 -4 -3 -4 -7 -10 -12 -3 3 5 4 -1 -5 -6 -1 -0 -1 -1 1 -1 -5 -8 -7 -1 2 4 3 3 4 5 6 5 3 2 1 0 -0 -1 -2 -3 -4 -4 -3 -2 -2 -1 -1 -1 -1 -0 -0 0 1 1 1 1 0 -1 -2 -2 -1 -1
0 1 0 -0 -2 -3 -2 7 15 19 18 10 4 -1 -3 -2 -1 0 1 1 -0 -2 -5 -6 -6 -5 -4 -3 -4 -7 -9 -2 2 5 6 2 -2 -4 1 1 -0 -0 2 1 -2 -5 -8 -5 -1 2 2 2 2 3 5 5 4 4 3 2 2 1 -1 -2 -3 -3 -3 -2 -2 -1 -1 -1 -1 -1 -0 0 1 1 1 1 0 -1 -2 -2 -2 -1
0 0 0 -0 -2 -3 -4 3 9 11 8 3 1 -0 -0 -0 0 0 1 0 -0 -2 -4 -6 -6 -7 -7 -6 -6 -6 -5 0 4 6 5 1 -2 -4 -1 1 0 0 1 1 -0 -2 -4 -4 -2 0 1 1 2 2 3 4 4 4 3 3 3 2 1 -1 -2 -2 -2 -2 -1 -1 -1 -1 -1 -1 -0 0 0 1 1 1 -0 -1 -2 -2 -2 -1
-0 -0 0 -0 -1 -2 -3 -1 1 2 1 2 2 3 4 3 3 2 2 0 -1 -2 -4 -4 -5 -6 -7 -8 -8 -7 -3 3 6 6 4 1 -3 -4 -2 -0 0 0 0 -1 -1 -2 -3 -2 -1 -0 -1 0 2 3 3 3 3 3 3 3 3 2 1 -0 -1 -2 -2 -2 -1 -1 -1 -1 -1 -1 -1 -0 0 0 1 0 -0 -1 -2 -3 -3 -2
-1 0 1 1 0 -0 -1 -1 -1 -1 0 1 3 3 4 4 3 2 2 0 -1 -2 -3 -4 -4 -4 -5 -7 -8 -8 -3 5 8 8 5 2 -1 -3 -3 -2 -0 0 -1 -2 -2 -2 -3 -2 -1 0 -1 -1 1 3 4 4 3 3 3 3 3 2 2 0 -1 -2 -3 -2 -1 -1 -1 -1 -1 -1 -1 -1 -0 0 1 0 -0 -1 -2 -2 -3 -3
-1 0 2 2 1 0 -0 -0 -1 -1 -1 0 1 2 2 2 1 1 1 0 -1 -1 -3 -4 -4 -4 -5 -6 -7 -6 -3 3 6 7 6 4 2 -1 -4 -3 -1 1 -0 -2 -2 -2 -3 -3 -2 -0 -0 -1 -0 2 4 4 4 3 3 4 4 3 3 1 -0 -2 -2 -2 -2 -1 -1 -2 -2 -2 -2 -1 -0 0 1 0 -0 -1 -2 -2 -2 -2
-0 -0 1 1 1 1 0 -0 -0 -1 -1 -1 -0 0 0 0 0 0 0 0 -1 -1 -2 -3 -4 -4 -5 -5 -4 -2 -1 2 4 6 6 5 3 -0 -3 -3 -0 2 1 -1 -2 -2 -2 -3 -3 -2 -1 -1 -0 1 2 3 3 3 3 4 4 4 4 3 1 -1 -2 -2 -2 -2 -2 -2 -2 -2 -2 -1 -0 1 1 1 -0 -1 -1 -1 -1 -2
-0 -0 -0 0 1 1 1 1 0 0 0 -0 -1 -1 -0 0 0 0 0 -1 -1 -2 -2 -3 -3 -3 -3 -2 -1 -0 1 2 3 5 6 5 3 1 -2 -2 -1 1 2 0 -1 -2 -3 -3 -4 -3 -2 -1 0 1 1 1 2 2 3 3 4 5 5 3 2 -0 -1 -2 -2 -2 -2 -3 -3 -2 -2 -1 0 1 1 1 -0 -1 -1 -1 -1 -1
-0 -1 -1 -0 0 0 1 1 1 1 -0 -1 -1 -1 -0 0 0 -0 -1 -1 -1 -1 -1 -2 -2 -2 -1 0 1 2 2 2 2 3 4 4 3 2 -0 -1 -1 0 2 1 -0 -2 -3 -3 -3 -3 -2 -2 -1 -0 1 1 1 1 1 2 3 4 5 3 2 -0 -1 -2 -2 -3 -3 -3 -3 -2 -2 -1 1 2 2 1 0 -0 -1 -2 -1 -1
-0 -1 -0 -0 -0 0 0 0 0 -0 -1 -1 -1 -0 1 1 0 0 0 0 0 0 -0 -1 -1 -1 -0 2 3 3 2 1 1 1 1 2 2 2 1 -0 -1 -0 1 0 -0 -1 -2 -3 -3 -2 -1 -1 -1 -1 -1 -0 0 1 1 1 2 4 5 4 2 -0 -2 -3 -3 -3 -3 -3 -3 -2 -2 -0 1 2 1 1 1 0 -1 -1 -1 -0
-0 -1 -0 0 0 0 -0 -0 -0 -0 -0 -0 0 1 2 1 1 1 2 2 2 2 1 -0 -1 -1 0 1 2 1 -0 -1 -2 -2 -2 -1 -1 -1 -1 -1 -1 -1 -0 -1 -1 -1 -1 -2 -2 -2 -1 -1 -1 -1 -1 -1 -0 0 0 -0 1 3 4 4 2 -1 -3 -3 -3 -3 -3 -3 -3 -2 -1 0 1 1 1 1 1 0 -1 -1 -1 -1
-1 -1 -0 0 0 0 -0 -0 0 0 0 0 1 2 2 2 1 1 1 2 2 2 1 -0 -1 -1 -0 1 2 1 -0 -1 -2 -2 -2 -2 -2 -2 -2 -2 -2 -1 -1 -2 -2 -2 -1 -1 -1 -2 -1 -1 -1 -2 -2 -1 0 0 0 0 1 1 3 3 2 -1 -3 -3 -3 -3 -3 -3 -2 -1 -0 1 1 0 -0 -0 -0 -0 -1 -1 -2 -1
-1 -0 0 0 0 0 0 1 1 1 1 1 2 2 3 2 0 -0 0 1 1 1 0 -0 -1 -1 0 2 3 4 3 1 -1 -1 -2 -2 -1 -1 -1 -1 -1 -2 -2 -2 -3 -2 -1 -1 -1 -1 -1 -1 -1 -2 -2 -1 0 1 1 2 1 1 0 1 1 0 -1 -2 -3 -3 -3 -3 -2 -1 1 1 1 -0 -1 -1 -1 -1 -1 -2 -1 -1
0 0 0 0 0 0 1 1 1 1 2 2 2 3 3 2 1 0 0 0 1 1 1 0 0 0 0 1 2 3 4 3 2 0 -1 -1 -1 -1 -1 -1 -1 -2 -2 -3 -3 -3 -3 -2 -1 -0 0 -0 -2 -2 -2 -1 0 1 2 2 2 1 -0 -0 -0 -0 -1 -2 -2 -3 -3 -2 -1 0 1 1 1 -0 -1 -1 -1 -2 -2 -2 -2 -1
-0 0 0 0 0 0 0 1 1 1 2 2 3 4 4 3 2 1 1 1 1 1 1 1 0 -0 -1 -0 0 2 3 5 4 3 1 -1 -1 -1 -0 -0 -1 -2 -2 -3 -3 -3 -3 -4 -3 -2 -0 -1 -2 -2 -2 -1 -0 1 2 2 2 1 -1 -0 -1 -1 -2 -2 -2 -2 -3 -2 -0 0 1 1 1 0 -1 -1 -2 -2 -2 -2 -2 -2
-1 -1 -1 -0 0 0 1 1 1 1 1 2 3 4 4 3 3 2 1 1 1 1 1 1 0 -0 -1 -0 0 1 2 3 4 4 3 0 -1 -1 -1 -0 0 -0 -1 -2 -3 -3 -3 -3 -3 -3 -2 -3 -3 -2 -1 -0 0 0 1 2 1 0 -0 0 -1 -2 -3 -2 -2 -2 -2 -1 -0 0 0 1 1 1 -1 -1 -2 -2 -2 -2 -2 -2
-2 -2 -2 -1 -0 0 0 0 0 0 1 2 3 4 4 3 2 2 1 1 1 0 0 0 0 0 -1 -1 -1 -1 -1 0 2 4 5 3 1 -1 -1 -1 -0 0 1 0 -0 -1 -2 -2 -2 -2 -2 -3 -4 -4 -2 0 1 1 1 1 0 0 0 0 -1 -2 -3 -3 -2 -2 -2 -1 -1 -1 -1 1 1 1 -1 -2 -3 -2 -2 -2 -2 -2
-2 -2 -1 -0 0 0 0 0 0 0 0 1 3 4 4 3 2 1 1 0 -0 -0 -1 -1 -1 -1 -1 -1 -2 -3 -3 -2 -1 1 3 3 3 1 -0 -0 -0 0 1 1 1 1 0 0 -0 -1 -1 -2 -3 -4 -3 -0 1 1 -0 -0 -0 -0 0 0 -0 -1 -2 -2 -2 -2 -1 -1 -2 -2 -2 -0 1 1 -1 -3 -3 -3 -2 -2 -1 -1
-1 -1 -0 -0 0 0 0 1 1 0 0 1 2 3 4 3 3 1 0 -1 -1 -1 -2 -2 -2 -2 -1 -1 -2 -3 -3 -2 -1 -0 1 2 2 1 1 0 0 1 1 1 1 1 1 1 1 1 1 -0 -2 -3 -3 -1 -0 -0 -1 -1 -1 -1 -1 -1 -1 -1 -1 -1 -1 -1 -1 -2 -2 -2 -1 -0 0 -0 -2 -3 -3 -3 -2 -1 -1 -1
-0 0 -0 0 0 0 1 1 1 0 0 1 2 3 3 3 3 1 0 -1 -1 -2 -2 -2 -2 -2 -2 -1 -2 -2 -2 -2 -1 -1 0 0 1 1 1 1 1 1 1 1 1 1 1 1 1 2 2 2 1 -1 -2 -2 -2 -1 -1 -1 -1 -1 -1 -1 -1 -1 -0 -0 -1 -1 -1 -2 -2 -2 -1 -0 -0 -1 -2 -3 -3 -3 -2 -1 -1 -1
1 0 0 0 0 1 1 1 1 1 1 1 2 2 2 2 2 1 -0 -1 -2 -2 -2 -2 -2 -2 -2 -1 -1 -1 -2 -1 -1 -1 -1 -0 0 0 0 0 0 0 0 0 1 1 1 1 1 2 3 3 3 1 -0 -2 -2 -1 -0 -1 -1 -1 -1 -1 -1 -1 0 0 -0 -1 -1 -2 -2 -2 -1 -1 -1 -1 -2 -4 -4 -3 -1 -1 -1 -1
Height
2964 2964 2963 2963 2962 2961 2960 2960 2959 2957 2955 2954 2953 2953 2951 2949 2948 2947 2946 2945 2944 2943 2942 2942 2941 2941 2940 2940 2940 2939 2938 2938 2938 2937 2937 2937 2936 2936 2936 2936 2936 2935 2935 2935 2935 2935 2935 2935 2935 2934 2934 2934 2934 2934 2934 2934 2934 2934 2933 2933 2933 2933 2933 2934 2934 2934 2934 2934 2935 2935 2936 2936 2937 2937 2938 2938 2939 2940 2941 2942 2942 2943 2943 2944 2945 2946
2962 2961 2960 2960 2959 2958 2957 2957 2955 2954 2952 2951 2950 2949 2948 2947 2946 2944 2943 2942 2941 2940 2939 2938 2937 2937 2937 2936 2936 2935 2935 2934 2933 2933 2933 2933 2933 2932 2932 2932 2932 2932 2932 2932 2932 2932 2932 2932 2932 2932 2931 2931 2931 2931 2931 2931 2931 2931 2931 2931 2930 2930 2930 2931 2931 2931 2931 2931 2932 2932 2932 2933 2933 2933 2934 2934 2935 2936 2938 2939 2939 2939 2940 2940 2941 2942
2959 2958 2957 2957 2956 2955 2954 2953 2952 2950 2949 2948 2947 2946 2945 2944 2943 2942 2941 2939 2938 2937 2936 2935 2934 2933 2933 2933 2932 2932 2931 2930 2930 2930 2929 2929 2929 2929 2929 2929 2929 2929 2929 2929 2929 2929 2929 2929 2929 2929 2928 2928 2928 2928 2928 2928 2928 2928 2928 2928 2928 2928 2928 2928 2928 2928 2928 2928 2928 2928 2929 2929 2929 2929 2930 2930 2931 2932 2933 2935 2936 2937 2937 2937 2937 2938
2957 2955 2954 2953 2953 2952 2951 2950 2948 2947 2946 2945 2944 2943 2942 2941 2940 2939 2938 2937 2936 2934 2933 2932 2931 2931 2930 2929 2929 2929 2928 2928 2927 2926 2926 2926 2926 2926 2926 2926 2926 2926 2926 2926 2926 2926 2926 2926 2926 2926 2926 2926 2926 2926 2926 2926 2925 2925 2925 2925 2925 2925 2925 2925 2925 2925 2925 2925 2925 2925 2925 2925 2926 2926 2926 2926 2927 2928 2928 2929 2931 2933 2933 2933 2933 2933
2954 2953 2951 2950 2949 2948 2947 2947 2945 2944 2943 2942 2941 2940 2939 2938 2937 2936 2935 2934 2933 2932 2931 2930 2929 2928 2928 2927 2926 2926 2926 2925 2924 2924 2923 2923 2923 2923 2923 2923 2923 2923 2923 2923 2923 2923 2923 2923 2923 2923 2923 2923 2923 2923 2923 2923 2923 2923 2923 2923 2923 2922 2922 2922 2922 2922 2922 2922 2922 2922 2922 2922 2922 2923 2923 2923 2923 2923 2924 2925 2926 2927 2928 2928 2929 2929
2951 2950 2948 2947 2945 2944 2944 2943 2942 2941 2940 2938 2938 2937 2936 2935 2934 2933 2932 2931 2931 2930 2929 2928 2928 2927 2926 2925 2924 2924 2923 2923 2922 2922 2921 2921 2921 2921 2921 2921 2921 2921 2921 2921 2921 2921 2921 2921 2920 2920 2920 2920 2920 2921 2921 2920 2920 2920 2920 2920 2920 2919 2919 2919 2919 2919 2919 2919 2918 2918 2918 2919 2919 2919 2919 2920 2920 2920 2920 2921 2922 2923 2923 2924 2925 2925
2947 2946 2945 2944 2942 2941 2940 2940 2939 2938 2936 2935 2934 2933 2933 2933 2932 2931 2930 2929 2928 2928 2927 2927 2927 2926 2925 2924 2923 2922 2921 2921 2920 2920 2919 2919 2919 2919 2919 2919 2919 2919 2919 2919 2919 2918 2918 2918 2918 2918 2918 2918 2918 2918 2918 2918 2918 2918 2917 2917 2917 2917 2917 2917 2916 2916 2916 2916 2916 2916 2916 2916 2916 2916 2916 2916 2917 2917 2917 2918 2918 2918 2919 2919 2921 2922
2943 2942 2942 2941 2939 2937 2936 2936 2936 2935 2933 2931 2930 2930 2930 2929 2929 2928 2927 2927 2926 2926 2926 2925 2925 2924 2924 2923 2921 2920 2919 2919 2918 2918 2918 2918 2917 2917 2917 2918 2918 2918 2918 2917 2917 2916 2916 2916 2916 2916 2915 2915 2915 2915 2915 2915 2915 2915 2915 2914 2914 2914 2914 2914 2914 2913 2913 2913 2913 2913 2913 2913 2913 2913 2913 2913 2914 2914 2914 2914 2914 2915 2915 2916 2917 2918
2941 2939 2938 2937 2936 2935 2933 2932 2932 2932 2931 2929 2927 2927 2926 2926 2925 2925 2925 2925 2924 2924 2924 2923 2923 2923 2922 2921 2920 2919 2918 2918 2917 2916 2916 2916 2916 2916 2916 2916 2916 2916 2916 2915 2915 2914 2914 2914 2913 2913 2913 2913 2913 2913 2913 2913 2913 2913 2912 2912 2912 2912 2912 2912 2911 2911 2911 2911 2911 2911 2911 2911 2911 2911 2911 2911 2911 2911 2911 2911 2911 2911 2912 2912 2913 2913
2938 2937 2935 2934 2933 2932 2931 2929 2928 2928 2928 2927 2925 2924 2924 2923 2922 2922 2922 2922 2923 2922 2922 2921 2920 2920 2920 2920 2919 2918 2917 2916 2916 2915 2915 2914 2914 2914 2914 2914 2914 2914 2914 2913 2913 2913 2913 2912 2912 2911 2911 2911 2910 2910 2910 2910 2910 2910 2910 2910 2910 2910 2909 2909 2909 2909 2909 2909 2909 2909 2908 2908 2908 2908 2908 2908 2908 2908 2908 2908 2908 2908 2908 2908 2909 2909
2934 2933 2932 2931 2929 2928 2928 2927 2926 2925 2925 2924 2923 2922 2922 2921 2920 2919 2918 2919 2920 2920 2920 2919 2918 2918 2918 2918 2918 2917 2916 2915 2915 2914 2914 2913 2913 2912 2912 2912 2912 2912 2911 2911 2911 2911 2911 2910 2910 2909 2909 2908 2908 2908 2908 2908 2908 2908 2908 2908 2908 2908 2908 2908 2907 2907 2907 2907 2907 2906 2906 2906 2906 2905 2905 2905 2905 2905 2905 2904 2904 2904 2904 2905 2905 2905
2932 2930 2928 2927 2926 2925 2924 2923 2923 2922 2922 2922 2921 2920 2919 2919 2919 2918 2916 2916 2917 2917 2917 2917 2916 2916 2916 2916 2915 2915 2914 2914 2913 2913 2913 2912 2912 2911 2910 2910 2910 2909 2909 2909 2909 2909 2909 2909 2908 2908 2907 2907 2906 2906 2906 2905 2905 2905 2905 2905 2905 2905 2905 2905 2905 2905 2905 2905 2904 2904 2904 2904 2903 2903 2903 2903 2902 2902 2902 2901 2901 2901 2901 2901 2901 2902
2928 2927 2925 2924 2923 2922 2921 2920 2919 2918 2919 2919 2919 2918 2917 2917 2917 2916 2915 2914 2914 2914 2914 2914 2914 2914 2914 2914 2913 2913 2913 2912 2912 2912 2911 2911 2910 2910 2909 2908 2908 2908 2908 2908 2908 2908 2908 2907 2907 2906 2906 2905 2905 2904 2904 2903 2903 2903 2903 2903 2903 2903 2903 2903 2903 2903 2903 2903 2902 2902 2902 2901 2901 2901 2900 2900 2900 2899 2899 2898 2898 2898 2898 2898 2898 2898
2925 2923 2922 2920 2919 2918 2918 2917 2916 2916 2915 2916 2916 2916 2915 2915 2915 2914 2913 2912 2912 2912 2912 2911 2911 2912 2912 2912 2912 2911 2910 2910 2909 2909 2909 2909 2909 2908 2908 2908 2908 2907 2907 2907 2907 2907 2906 2906 2905 2904 2904 2903 2903 2903 2902 2901 2901 2901 2901 2900 2900 2900 2901 2901 2901 2901 2900 2900 2900 2900 2899 2899 2899 2898 2898 2898 2897 2897 2896 2896 2896 2895 2895 2895 2895 2895
2922 2921 2919 2918 2916 2916 2915 2915 2914 2913 2913 2913 2914 2914 2913 2913 2913 2912 2911 2910 2910 2909 2909 2908 2908 2909 2910 2910 2909 2908 2908 2907 2907 2907 2907 2908 2908 2907 2906 2906 2906 2906 2906 2906 2906 2906 2905 2904 2904 2903 2903 2902 2901 2901 2900 2899 2899 2899 2898 2898 2898 2898 2898 2898 2898 2898 2898 2898 2898 2897 2897 2896 2896 2896 2895 2895 2894 2894 2894 2893 2893 2893 2893 2893 2892 2892
2920 2918 2917 2915 2914 2914 2913 2913 2912 2911 2911 2912 2912 2912 2911 2910 2910 2910 2909 2908 2908 2907 2907 2906 2905 2906 2907 2908 2908 2907 2905 2904 2904 2904 2905 2905 2906 2905 2904 2904 2904 2905 2905 2905 2905 2905 2904 2903 2902 2902 2901 2900 2900 2899 2898 2898 2897 2897 2896 2896 2896 2896 2895 2895 2895 2895 2895 2895 2895 2894 2894 2894 2893 2893 2893 2892 2892 2892 2891 2891 2891 2890 2890 2890 2889 2889
2917 2916 2915 2913 2913 2912 2911 2911 2911 2911 2910 2910 2910 2909 2909 2908 2908 2907 2907 2907 2906 2905 2905 2904 2903 2903 2903 2905 2906 2905 2903 2902 2901 2902 2902 2903 2903 2903 2903 2902 2902 2902 2903 2903 2903 2903 2902 2902 2901 2900 2899 2899 2898 2898 2897 2896 2895 2895 2894 2894 2893 2893 2893 2893 2893 2893 2893 2893 2892 2892 2891 2891 2891 2890 2890 2889 2889 2889 2888 2888 2888 2888 2887 2887 2886 2886
2915 2914 2913 2911 2910 2909 2909 2910 2909 2909 2908 2908 2908 2907 2907 2906 2906 2905 2905 2905 2904 2904 2903 2902 2901 2901 2901 2902 2903 2903 2902 2900 2898 2898 2899 2900 2901 2902 2901 2900 2899 2900 2900 2901 2901 2901 2900 2899 2899 2898 2898 2897 2896 2895 2895 2894 2893 2893 2892 2892 2891 2891 2891 2891 2891 2891 2890 2890 2889 2889 2889 2888 2888 2888 2887 2887 2886 2886 2886 2885 2885 2884 2884 2883 2883 2883
2911 2911 2910 2908 2907 2907 2907 2907 2907 2906 2907 2906 2905 2905 2904 2904 2903 2903 2903 2903 2903 2902 2901 2900 2899 2899 2899 2900 2900 2901 2900 2898 2896 2895 2896 2897 2898 2899 2899 2898 2897 2897 2898 2898 2898 2898 2898 2897 2896 2896 2895 2895 2894 2893 2892 2892 2891 2890 2890 2889 2889 2889 2888 2888 2888 2888 2888 2888 2887 2887 2887 2886 2886 2885 2885 2884 2884 2883 2883 2882 2882 2881 2881 2880 2880 2880
2908 2908 2907 2907 2906 2905 2904 2904 2904 2905 2905 2904 2903 2902 2902 2901 2901 2901 2901 2901 2900 2900 2899 2898 2897 2897 2897 2897 2898 2898 2898 2897 2895 2893 2893 2893 2894 2896 2897 2896 2895 2894 2895 2896 2896 2896 2895 2894 2894 2893 2893 2892 2891 2891 2890 2889 2888 2888 2887 2887 2886 2886 2886 2886 2886 2886 2886 2885 2885 2885 2884 2884 2883 2883 2883 2882 2881 2881 2880 2880 2879 2878 2878 2878 2877 2877
2906 2906 2906 2906 2906 2904 2902 2902 2902 2903 2903 2902 2901 2900 2899 2899 2899 2899 2898 2898 2898 2898 2897 2896 2895 2895 2894 2894 2895 2896 2896 2895 2893 2891 2890 2889 2890 2892 2894 2893 2892 2891 2892 2893 2893 2893 2892 2891 2891 2891 2890 2889 2889 2888 2887 2886 2885 2885 2884 2884 2884 2884 2884 2884 2884 2883 2883 2883 2883 2883 2882 2882 2881 2881 2880 2880 2879 2878 2878 2877 2877 2876 2875 2875 2874 2874
2905 2904 2904 2904 2903 2902 2900 2900 2900 2901 2901 2900 2899 2898 2898 2898 2897 2897 2896 2896 2896 2896 2895 2895 2893 2893 2892 2892 2893 2893 2894 2893 2892 2890 2888 2886 2887 2889 2891 2890 2889 2888 2888 2889 2890 2890 2889 2888 2888 2888 2888 2887 2886 2885 2884 2883 2883 2882 2882 2881 2881 2882 2882 2882 2882 2881 2881 2881 2881 2881 2880 2880 2879 2879 2878 2878 2877 2876 2876 2875 2874 2874 2873 2872 2872 2871
2903 2902 2902 2902 2901 2900 2899 2898 2898 2898 2899 2898 2898 2897 2896 2896 2895 2894 2894 2895 2895 2894 2893 2892 2891 2890 2890 2890 2891 2892 2892 2892 2891 2888 2887 2884 2884 2886 2888 2888 2886 2885 2885 2886 2886 2886 2885 2885 2885 2885 2884 2884 2883 2882 2881 2880 2880 2879 2879 2879 2879 2879 2879 2879 2879 2879 2879 2879 2879 2878 2878 2878 2877 2877 2876 2876 2875 2874 2873 2873 2872 2871 2871 2870 2869 2868
2902 2901 2900 2900 2899 2898 2897 2896 2896 2896 2896 2896 2896 2895 2894 2894 2894 2893 2893 2894 2893 2891 2889 2888 2888 2888 2888 2888 2889 2889 2890 2889 2888 2886 2884 2883 2882 2883 2884 2884 2883 2882 2882 2883 2883 2883 2882 2882 2882 2882 2882 2881 2880 2879 2878 2878 2878 2877 2877 2877 2877 2877 2878 2878 2877 2877 2877 2877 2877 2877 2876 2876 2875 2875 2874 2873 2873 2872 2871 2871 2870 2869 2868 2868 2867 2866
2900 2899 2898 2897 2897 2896 2895 2894 2894 2894 2894 2894 2893 2893 2893 2893 2893 2893 2893 2891 2889 2887 2886 2886 2885 2885 2886 2886 2886 2887 2887 2887 2886 2884 2882 2880 2879 2879 2881 2881 2880 2879 2878 2879 2879 2879 2878 2879 2879 2879 2879 2878 2878 2877 2876 2876 2875 2875 2875 2875 2875 2875 2875 2875 2875 2875 2875 2875 2875 2874 2874 2874 2873 2873 2872 2872 2871 2870 2869 2868 2868 2867 2866 2865 2864 2863
2897 2896 2895 2894 2893 2893 2892 2892 2892 2891 2892 2892 2892 2891 2891 2892 2892 2891 2889 2887 2886 2884 2884 2883 2883 2883 2883 2884 2884 2884 2884 2884 2883 2882 2880 2878 2876 2876 2877 2878 2877 2876 2875 2875 2876 2876 2875 2876 2876 2877 2877 2876 2875 2875 2874 2874 2873 2873 2874 2874 2874 2873 2873 2873 2873 2873 2873 2873 2873 2872 2872 2872 2871 2871 2870 2869 2869 2868 2867 2866 2866 2865 2864 2863 2862 2861
2895 2894 2893 2892 2891 2890 2889 2888 2888 2888 2888 2889 2889 2888 2888 2888 2888 2887 2885 2884 2883 2883 2882 2881 2880 2881 2881 2881 2881 2881 2881 2881 2880 2879 2878 2876 2874 2873 2873 2874 2873 2872 2872 2872 2872 2873 2873 2873 2873 2874 2874 2873 2873 2873 2872 2872 2872 2872 2872 2872 2872 2872 2872 2871 2871 2871 2871 2870 2870 2870 2870 2870 2869 2869 2868 2868 2867 2866 2865 2864 2863 2863 2862 2861 2860 2859
2893 2892 2891 2890 2888 2887 2886 2885 2884 2884 2884 2885 2885 2886 2885 2885 2884 2883 2883 2882 2881 2880 2879 2879 2878 2878 2878 2878 2878 2878 2878 2878 2877 2876 2875 2873 2871 2870 2870 2871 2870 2869 2869 2868 2869 2869 2870 2870 2870 2871 2871 2871 2871 2871 2870 2870 2870 2870 2870 2870 2870 2870 2870 2869 2869 2869 2868 2868 2868 2868 2868 2868 2868 2867 2866 2866 2865 2864 2863 2863 2862 2861 2859 2858 2858 2857
2892 2890 2888 2887 2886 2885 2884 2883 2882 2882 2882 2882 2882 2883 2883 2883 2881 2880 2879 2878 2878 2878 2878 2877 2877 2877 2876 2875 2875 2874 2874 2874 2874 2873 2872 2870 2868 2867 2868 2868 2867 2867 2866 2866 2866 2866 2867 2867 2868 2868 2868 2869 2869 2868 2868 2868 2868 2868 2868 2868 2868 2868 2868 2868 2867 2867 2867 2866 2866 2866 2866 2866 2865 2865 2864 2863 2863 2862 2861 2860 2859 2858 2857 2856 2855 2854
2890 2888 2886 2884 2884 2883 2882 2881 2881 2880 2880 2880 2880 2880 2879 2879 2878 2876 2876 2876 2876 2876 2875 2875 2875 2874 2874 2873 2872 2871 2870 2871 2871 2870 2868 2867 2865 2864 2864 2864 2864 2864 2864 2863 2863 2863 2863 2864 2865 2865 2866 2866 2866 2866 2866 2866 2866 2866 2867 2867 2866 2866 2866 2865 2865 2865 2864 2864 2864 2864 2864 2864 2863 2863 2862 2862 2861 2860 2859 2858 2857 2856 2855 2854 2853 2852
2885 2884 2882 2881 2881 2880 2880 2880 2880 2879 2878 2878 2877 2877 2876 2875 2874 2874 2874 2873 2873 2873 2873 2873 2873 2872 2872 2871 2869 2868 2867 2867 2868 2867 2866 2865 2863 2863 2862 2862 2862 2862 2862 2862 2861 2861 2860 2861 2862 2863 2863 2863 2863 2864 2864 2864 2864 2865 2865 2865 2865 2864 2864 2863 2863 2863 2863 2862 2862 2862 2862 2862 2861 2861 2860 2859 2859 2858 2857 2857 2856 2854 2853 2853 2851 2850
2881 2880 2879 2878 2878 2877 2877 2877 2877 2876 2875 2874 2874 2873 2873 2873 2872 2872 2872 2871 2871 2871 2871 2870 2870 2870 2869 2869 2867 2866 2865 2865 2865 2865 2864 2863 2862 2861 2860 2860 2859 2859 2860 2860 2860 2859 2858 2858 2859 2860 2860 2860 2861 2861 2862 2862 2863 2863 2863 2863 2863 2863 2862 2862 2861 2861 2861 2860 2860 2860 2860 2859 2859 2858 2858 2857 2857 2856 2855 2855 2854 2853 2852 2851 2849 2848
2878 2877 2876 2875 2874 2874 2873 2873 2872 2872 2871 2871 2870 2870 2870 2870 2870 2869 2869 2869 2868 2868 2868 2868 2868 2867 2867 2866 2865 2864 2863 2863 2863 2863 2862 2861 2859 2858 2858 2858 2858 2858 2858 2858 2858 2858 2857 2857 2857 2857 2858 2858 2858 2858 2859 2860 2860 2861 2861 2861 2861 2861 2860 2859 2859 2859 2858 2858 2858 2858 2858 2857 2857 2856 2856 2855 2855 2854 2854 2853 2852 2851 2850 2849 2848 2847
2875 2873 2873 2872 2871 2870 2870 2869 2869 2868 2868 2868 2868 2867 2867 2867 2867 2867 2867 2866 2866 2866 2866 2866 2866 2865 2865 2864 2863 2862 2862 2862 2861 2861 2859 2858 2857 2856 2856 2856 2856 2856 2856 2856 2856 2856 2855 2855 2855 2855 2855 2856 2856 2856 2857 2858 2858 2858 2859 2859 2859 2858 2858 2858 2857 2857 2857 2856 2856 2856 2856 2855 2855 2854 2854 2853 2853 2853 2852 2851 2850 2849 2848 2847 2846 2845
2872 2871 2870 2868 2868 2867 2867 2866 2866 2865 2865 2865 2865 2864 2864 2864 2864 2864 2864 2864 2864 2864 2864 2864 2864 2864 2863 2862 2861 2860 2860 2860 2860 2859 2858 2857 2856 2855 2854 2854 2854 2854 2854 2854 2854 2854 2853 2853 2853 2853 2853 2853 2854 2854 2855 2856 2856 2856 2857 2857 2857 2857 2856 2856 2855 2855 2854 2854 2854 2854 2853 2853 2853 2853 2852 2852 2852 2851 2851 2850 2849 2848 2847 2846 2844 2843
2868 2868 2867 2866 2865 2864 2863 2863 2863 2863 2862 2862 2862 2862 2862 2862 2861 2861 2861 2861 2862 2862 2862 2862 2862 2862 2862 2861 2859 2858 2858 2858 2858 2857 2857 2856 2855 2854 2853 2852 2852 2853 2852 2852 2852 2852 2852 2852 2852 2852 2852 2852 2852 2853 2853 2853 2854 2854 2855 2855 2855 2855 2854 2854 2853 2853 2853 2853 2853 2852 2852 2852 2851 2851 2851 2850 2850 2850 2849 2848 2848 2846 2845 2844 2843 2842
2866 2864 2863 2863 2862 2861 2860 2860 2860 2860 2860 2860 2859 2859 2859 2859 2859 2859 2859 2859 2859 2859 2859 2859 2859 2859 2859 2858 2858 2857 2856 2856 2856 2855 2855 2854 2853 2853 2852 2851 2851 2851 2851 2850 2850 2850 2850 2850 2850 2850 2850 2850 2850 2851 2851 2851 2852 2852 2853 2853 2853 2853 2853 2852 2852 2851 2851 2851 2851 2851 2850 2850 2850 2849 2849 2849 2849 2848 2848 2847 2846 2845 2844 2843 2842 2840
2863 2862 2861 2860 2859 2858 2858 2858 2858 2858 2858 2857 2857 2857 2857 2857 2857 2856 2856 2856 2856 2856 2857 2857 2857 2857 2857 2856 2855 2855 2854 2854 2854 2853 2853 2853 2852 2852 2850 2850 2849 2849 2849 2849 2848 2848 2848 2848 2848 2848 2848 2848 2848 2849 2849 2849 2850 2850 2850 2851 2851 2851 2851 2850 2850 2850 2849 2849 2849 2849 2848 2848 2848 2848 2848 2848 2847 2847 2846 2846 2845 2843 2843 2842 2840 2839
2860 2859 2858 2858 2857 2856 2856 2856 2855 2855 2855 2855 2855 2855 2855 2855 2854 2854 2854 2854 2854 2854 2854 2854 2854 2854 2854 2854 2853 2853 2853 2852 2852 2852 2851 2851 2850 2850 2849 2848 2848 2848 2848 2848 2847 2847 2847 2846 2846 2846 2846 2846 2847 2847 2847 2847 2848 2848 2848 2848 2848 2849 2849 2848 2848 2848 2848 2848 2847 2847 2847 2847 2847 2847 2846 2846 2846 2846 2845 2844 2843 2842 2841 2840 2839 2838
2858 2857 2856 2856 2855 2854 2854 2854 2853 2853 2853 2853 2853 2853 2853 2853 2852 2852 2852 2852 2852 2852 2852 2852 2852 2852 2852 2852 2851 2851 2851 2850 2850 2850 2849 2849 2848 2848 2848 2847 2847 2846 2846 2846 2846 2845 2845 2845 2845 2844 2845 2845 2845 2845 2845 2845 2846 2846 2846 2846 2846 2847 2847 2847 2846 2846 2846 2845 2845 2845 2845 2845 2845 2845 2845 2845 2844 2844 2843 2843 2842 2841 2840 2839 2838 2837
2856 2855 2854 2854 2853 2853 2852 2852 2852 2852 2852 2851 2851 2851 2851 2850 2850 2850 2850 2850 2849 2849 2849 2849 2849 2850 2850 2850 2849 2849 2849 2848 2848 2848 2848 2847 2847 2846 2846 2846 2845 2845 2844 2844 2844 2843 2843 2843 2843 2843 2843 2843 2843 2843 2843 2843 2843 2843 2843 2844 2844 2844 2844 2844 2844 2844 2844 2843 2843 2843 2843 2843 2843 2843 2843 2843 2843 2843 2842 2841 2840 2840 2838 2838 2837 2836
2854 2853 2853 2852 2852 2851 2851 2851 2850 2850 2850 2849 2849 2849 2849 2848 2848 2848 2848 2848 2848 2848 2847 2847 2847 2847 2848 2848 2848 2847 2847 2846 2846 2846 2845 2845 2845 2844 2844 2844 2843 2843 2843 2842 2842 2842 2842 2841 2841 2841 2841 2841 2841 2841 2841 2841 2841 2841 2842 2842 2842 2842 2842 2842 2842 2842 2842 2842 2842 2842 2842 2842 2842 2842 2842 2842 2841 2841 2840 2839 2839 2838 2837 2836 2835 2834
2852 2852 2851 2850 2850 2849 2849 2849 2849 2848 2848 2848 2848 2847 2847 2847 2846 2846 2846 2845 2845 2845 2845 2845 2845 2845 2845 2845 2845 2845 2845 2844 2844 2843 2843 2843 2843 2842 2842 2842 2841 2841 2841 2840 2840 2840 2839 2839 2839 2839 2839 2839 2839 2839 2839 2839 2839 2839 2839 2840 2840 2840 2840 2840 2840 2840 2840 2839 2839 2840 2840 2840 2840 2840 2840 2840 2840 2839 2838 2838 2837 2837 2836 2835 2834 2833
2850 2850 2849 2849 2848 2848 2848 2848 2847 2847 2847 2846 2846 2846 2846 2845 2845 2844 2844 2844 2843 2843 2843 2843 2843 2843 2843 2843 2843 2843 2843 2843 2842 2841 2841 2840 2840 2840 2839 2839 2839 2839 2839 2838 2838 2838 2838 2838 2837 2837 2837 2837 2837 2837 2837 2837 2838 2838 2838 2838 2838 2838 2838 2838 2838 2838 2838 2838 2838 2838 2838 2838 2838 2839 2839 2838 2838 2838 2837 2837 2836 2835 2834 2833 2833 2832
2848 2848 2848 2847 2847 2847 2846 2846 2845 2845 2845 2845 2844 2844 2844 2843 2843 2843 2842 2842 2842 2842 2841 2841 2841 2841 2841 2841 2841 2841 2840 2840 2840 2839 2838 2838 2838 2837 2837 2837 2837 2836 2836 2836 2836 2836 2835 2835 2835 2835 2835 2835 2835 2835 2835 2836 2836 2836 2836 2836 2836 2836 2836 2836 2835 2835 2835 2835 2836 2836 2836 2836 2837 2837 2837 2837 2837 2836 2836 2835 2834 2834 2833 2833 2832 2831
2847 2846 2846 2846 2845 2845 2844 2844 2844 2843 2843 2843 2843 2843 2843 2842 2842 2841 2841 2840 2840 2840 2839 2839 2839 2839 2838 2838 2838 2838 2838 2838 2837 2837 2836 2835 2835 2834 2834 2834 2834 2833 2833 2833 2833 2833 2833 2833 2833 2833 2833 2833 2833 2833 2833 2834 2834 2834 2834 2834 2834 2834 2834 2834 2834 2833 2833 2833 2834 2834 2834 2834 2835 2835 2835 2835 2835 2834 2834 2833 2833 2833 2832 2831 2831 2830
2845 2844 2844 2844 2843 2843 2843 2843 2843 2842 2842 2842 2842 2841 2841 2840 2840 2839 2839 2838 2838 2838 2837 2837 2837 2836 2836 2836 2835 2835 2834 2834 2834 2834 2833 2833 2832 2832 2831 2831 2830 2830 2830 2830 2830 2830 2830 2830 2831 2831 2831 2831 2831 2831 2831 2832 2832 2832 2832 2832 2832 2832 2832 2832 2832 2832 2832 2832 2832 2832 2832 2833 2833 2833 2833 2833 2833 2833 2833 2832 2832 2831 2831 2830 2830 2829
2843 2843 2842 2842 2842 2842 2841 2841 2841 2841 2840 2840 2840 2840 2839 2839 2838 2838 2837 2837 2836 2836 2835 2835 2834 2834 2834 2833 2833 2832 2831 2831 2831 2830 2830 2830 2829 2828 2828 2828 2827 2827 2827 2827 2827 2828 2828 2828 2828 2828 2828 2828 2828 2828 2829 2829 2830 2830 2830 2830 2830 2830 2830 2830 2830 2830 2830 2830 2830 2830 2830 2831 2831 2831 2832 2832 2832 2831 2831 2830 2830 2830 2829 2829 2829 2828
2841 2841 2840 2840 2840 2840 2840 2839 2839 2839 2839 2838 2838 2838 2838 2837 2837 2836 2835 2835 2834 2834 2833 2833 2832 2832 2831 2831 2830 2829 2828 2828 2827 2827 2827 2826 2826 2825 2825 2824 2824 2824 2824 2824 2824 2825 2825 2825 2825 2826 2826 2826 2826 2827 2827 2827 2828 2828 2828 2828 2828 2828 2828 2828 2828 2828 2828 2828 2828 2828 2828 2828 2829 2829 2829 2830 2830 2830 2829 2829 2828 2828 2828 2828 2828 2827
2839 2839 2839 2838 2838 2838 2838 2838 2838 2837 2837 2837 2836 2836 2836 2835 2835 2834 2833 2833 2832 2832 2831 2831 2830 2829 2829 2828 2827 2826 2826 2825 2824 2823 2823 2823 2822 2822 2821 2821 2821 2821 2821 2821 2822 2822 2822 2823 2823 2823 2823 2824 2824 2824 2824 2825 2825 2825 2825 2825 2826 2825 2825 2825 2825 2826 2826 2826 2826 2826 2827 2827 2827 2827 2828 2828 2828 2828 2828 2827 2827 2827 2827 2827 2827 2827
2837 2837 2837 2837 2836 2836 2836 2836 2835 2835 2835 2834 2834 2834 2833 2833 2833 2832 2832 2831 2830 2830 2829 2828 2828 2827 2826 2825 2824 2823 2823 2822 2821 2821 2820 2819 2819 2819 2818 2818 2818 2818 2819 2819 2819 2819 2820 2820 2820 2821 2821 2821 2821 2821 2822 2822 2822 2823 2823 2823 2823 2823 2823 2823 2823 2823 2824 2824 2824 2824 2825 2825 2825 2825 2826 2826 2826 2826 2826 2826 2826 2826 2826 2826 2826 2826